Kezdőlap
METAR-TAF:

METAR-TAF

Repülőterek :

Agri-Science Center

Chillicothe, Missouri, Amerikai Egyesült Államok

földrajzi szélesség: 39-49N, földrajzi hosszúság: 093-35W, magasság: 234 m

Jelenlegi meteorológiai megfigyelések

A jelentés 24 perccel ezelõtt készült, 04:52 UTC
Szélcsend
Hőmérséklet 14°C
Páratartalom 58%
Légköri nyomás 1010 hPa

METAR: KCDJ 300452Z AUTO 00000KT 14/06 A2983 RMK AO1 SLP098 T01440061

Idő: 00:16 (05:16 UTC)


TAF: hiányzik

Meteorológiai megfigyelések és előrejelzések több, mint 4000 repülőtéren (METAR és TAF jelentéseket).

A térképen piros és sárga pontok jelzik az elérhető meteorológiai állomásokat.

Mozgassa az egeret a pont fölött, hogy megjelenjen az állomás neve.

Azután kattintson az időjárási megfigyelések és előrejelzések megtekintéséhez.

A térkép megváltoztatása: kattintson a fekete keresztel jelölt zöld gombra ráközelítéshez, a vonallal jelölt zöld gombra távolításhoz, vagy a zöld nyilakra a szomszédos térképek eléréséhez.


METAR-TAF: